IRNSS-1B

Last updated on Jan. 19, 2020, 4:37 a.m. UTC

1 39635U 14017A   20017.79007660  .00000088  00000-0  00000-0 0  9990
2 39635  28.8824 279.6924 0017595 184.3058 352.2918  1.00278077 21101
UTC
Height (km)
Latitude
Longitude
Inclination
Orbital Period
UTC large
Height (km)
Speed (km/s)
/
Latitude / Longitude
Inclination (degrees)
Orbital Period (minutes)
Azimuth
Elevation
Range (km)
Doppler Factor
iOS Compass Heading
iOS Angle

Next 30 passes for location: Hong Kong

Rise time Rise Azimuth (degrees) Set time Set Azimuth (degrees) Duration Max altitude (degrees)

No matching passes for this satellites